Wind_Speed
33 34 36 36 35 34 32 32 32 32 32 32 32 33 33 33 32 31 30 30 30 30 30 31 31 31 30 29 28 26 25 24 23 22 21 20 20 19 19 18 18 18 17 17 17 17 17 16 16 16 16 16 16 17 17 18 18 19 19 20 21 21 22 22 22 22 22 22 21
34 35 36 36 35 33 32 32 32 32 33 33 33 33 33 32 31 30 30 29 29 29 30 30 31 31 30 29 28 26 25 24 23 22 21 21 20 19 19 18 18 18 18 18 17 17 17 17 17 16 16 16 16 17 17 18 18 19 19 20 21 21 22 22 22 22 22 21 21
35 36 37 36 35 34 33 32 33 33 33 33 33 32 31 31 30 29 29 29 28 29 29 30 31 31 30 29 28 27 25 24 23 23 22 21 20 19 19 18 18 18 18 18 18 18 17 17 17 17 16 17 17 17 17 18 18 19 19 20 20 21 21 22 22 22 22 21 21
36 36 37 36 35 34 33 33 33 33 33 33 32 31 30 30 29 29 29 28 29 29 29 30 30 31 30 29 28 27 26 25 24 23 22 21 20 20 19 19 19 18 18 18 18 18 18 17 17 17 17 17 17 17 17 18 18 19 19 20 20 21 21 21 22 22 22 21 21
36 37 37 36 35 34 33 33 33 33 33 32 31 30 30 29 29 29 29 29 29 29 30 30 30 30 30 29 28 27 26 26 25 24 23 22 21 20 19 19 19 19 19 19 18 18 18 17 17 17 17 17 17 17 17 18 18 19 19 20 20 21 21 21 21 21 21 21 21
36 37 37 36 35 34 34 33 33 32 32 31 30 30 30 30 30 30 30 30 30 30 29 29 30 30 29 29 28 28 27 26 25 24 23 22 21 20 20 19 19 19 19 19 19 18 18 17 17 17 17 17 17 17 17 17 18 18 19 20 20 21 21 21 21 21 21 21 21
37 37 37 36 35 34 34 33 32 32 32 31 30 30 30 31 31 31 30 30 30 30 30 30 30 30 29 29 29 28 28 27 26 24 23 22 21 21 20 20 20 20 19 19 19 18 18 17 17 17 17 17 16 16 17 17 17 18 19 19 20 21 21 22 22 21 21 21 21
37 36 36 35 35 34 33 32 32 32 31 31 31 31 31 31 31 31 31 30 30 30 30 30 30 30 30 29 29 29 28 27 26 25 24 23 22 21 20 20 20 20 20 20 19 18 18 17 17 17 17 16 16 16 16 16 17 17 18 19 20 21 21 22 22 22 21 21 21
36 35 35 34 34 33 32 31 31 31 32 31 31 31 31 32 32 31 31 31 31 31 31 31 30 30 30 30 30 29 28 27 26 25 24 23 22 21 21 21 21 20 20 20 19 18 18 17 17 17 17 16 16 16 16 16 17 17 18 19 20 21 21 22 22 22 22 22 22
34 34 34 33 32 32 31 31 31 31 32 32 32 32 32 32 32 32 31 31 31 31 31 31 31 31 30 30 30 29 29 28 27 26 24 23 22 22 21 21 21 21 20 20 19 18 18 17 17 17 17 16 16 16 16 16 17 17 18 19 19 20 21 22 22 22 23 22 22
32 32 31 31 31 30 30 30 31 31 32 32 32 32 33 33 33 32 32 32 32 32 32 32 31 31 30 30 30 30 29 28 27 26 24 23 22 22 22 22 22 21 20 20 19 18 18 17 17 17 17 16 16 16 16 16 17 17 18 19 20 20 21 22 22 22 23 23 23
29 29 29 29 29 29 29 30 31 32 33 33 33 33 34 34 33 33 32 32 32 32 32 32 31 31 30 30 30 30 29 28 27 26 24 23 23 23 22 22 22 21 21 20 19 19 18 17 17 17 16 16 16 16 16 16 17 17 18 19 20 21 21 22 22 23 23 23 23
27 28 28 28 28 29 29 30 31 32 33 34 34 34 34 34 33 33 33 33 33 32 32 32 31 31 31 31 31 30 29 28 27 25 24 24 23 23 23 23 22 21 21 20 19 19 18 17 17 16 16 16 16 16 16 17 17 18 19 19 20 21 22 22 23 23 23 24 24
27 27 27 28 28 29 30 31 32 33 34 34 35 35 35 35 34 34 34 33 33 32 32 32 31 31 31 31 31 30 29 28 26 25 24 24 24 24 23 23 22 21 21 20 19 18 18 17 17 16 16 16 16 16 17 17 18 18 19 20 21 21 22 23 23 24 24 24 24
27 27 27 28 29 29 30 31 32 33 34 35 35 36 36 36 35 35 34 33 33 32 32 32 32 31 31 31 30 29 28 27 26 25 24 24 24 24 24 23 22 21 21 20 19 18 18 17 17 16 16 16 16 16 17 18 19 19 20 21 21 22 22 23 24 24 24 25 25
27 27 28 28 29 30 31 32 33 34 35 36 37 37 37 37 36 35 34 33 33 33 32 32 32 31 31 30 30 29 28 27 26 25 25 25 25 25 24 23 22 21 20 20 19 18 18 17 17 16 16 16 16 17 18 18 19 20 21 21 22 22 23 23 24 24 25 25 26
28 28 28 29 30 30 32 33 34 35 36 37 38 38 37 36 35 34 33 33 33 32 32 31 31 31 30 30 29 28 27 27 26 25 25 25 25 25 24 23 22 21 20 19 19 18 18 17 17 16 16 16 17 17 18 19 20 21 22 22 23 23 24 24 24 25 26 26 26
28 29 29 30 31 32 33 34 35 36 37 37 37 37 36 35 34 33 33 33 32 32 31 31 31 31 30 29 29 28 27 26 26 26 26 26 25 25 24 23 22 21 20 19 19 18 18 17 17 17 17 17 17 18 19 20 21 22 22 23 24 24 25 25 25 25 26 27 27
29 30 30 31 32 32 33 34 35 36 36 36 36 35 34 34 34 33 33 32 32 31 31 30 30 30 30 29 28 28 27 26 26 26 26 26 25 24 24 23 21 20 20 19 18 18 17 17 17 17 17 18 18 19 20 21 22 23 23 24 25 25 25 25 26 26 27 27 28
29 30 31 31 31 32 32 33 34 35 35 35 35 35 35 34 34 33 32 32 31 31 30 30 30 30 29 29 28 27 27 26 26 26 26 26 25 24 23 22 21 20 19 19 18 18 17 17 17 18 18 19 19 20 21 22 23 24 25 25 26 26 26 26 26 27 27 28 28
28 29 29 30 30 31 31 32 33 34 35 35 35 35 35 34 34 33 32 31 31 30 30 30 30 30 29 28 28 27 27 27 26 26 26 26 25 24 23 22 21 20 19 19 18 18 18 18 18 19 20 20 20 21 22 23 24 25 26 26 26 27 27 27 27 28 28 29 29
26 27 28 29 29 30 31 32 33 34 35 35 35 35 35 34 33 32 31 30 30 30 30 30 30 29 29 28 28 27 27 27 27 26 26 25 24 23 23 22 21 20 19 19 18 18 18 18 19 20 20 21 21 23 24 25 26 27 27 27 27 27 28 28 28 29 29 30 30
25 26 27 28 28 29 30 32 33 34 35 35 35 35 35 33 32 31 30 30 30 30 30 30 30 29 29 28 28 27 27 27 27 27 26 25 24 23 22 21 20 20 19 18 18 18 18 19 20 21 21 21 22 24 25 27 27 28 28 28 28 28 28 29 29 30 30 31 31
25 26 27 27 28 29 30 32 33 34 35 35 35 35 34 33 31 30 30 30 30 30 30 30 30 29 29 28 28 28 28 28 27 27 26 25 24 23 22 21 20 19 19 18 18 18 19 20 21 21 21 22 24 26 27 28 28 28 28 28 29 29 29 29 30 30 31 31 31
25 25 26 27 27 28 30 31 33 34 34 35 34 34 33 32 31 30 30 30 30 30 30 30 30 29 29 28 28 28 28 28 27 27 26 25 24 23 22 21 20 19 18 18 17 19 20 21 21 21 22 24 26 28 29 29 29 29 29 29 29 30 30 30 31 31 31 31 32
24 25 26 26 27 28 30 31 32 33 34 34 34 33 33 32 31 30 30 30 30 30 30 30 30 30 29 29 29 29 28 28 27 26 26 24 24 23 22 21 20 19 18 17 18 20 21 22 21 22 24 26 28 29 30 30 30 30 30 31 31 31 32 32 32 32 32 32 32
23 24 25 26 27 28 29 31 32 33 34 34 34 33 32 32 31 31 30 30 30 31 31 31 30 30 29 29 29 29 28 28 27 26 25 24 23 23 22 21 20 19 18 17 19 21 22 22 22 24 26 28 29 30 31 32 32 32 32 33 33 33 33 33 33 33 33 33 33
21 22 23 24 25 27 28 30 31 32 33 34 33 33 32 32 31 31 31 31 31 31 31 31 30 30 29 29 29 29 28 28 27 26 25 24 23 23 22 21 20 19 18 19 20 21 21 21 23 25 27 29 30 31 32 32 33 33 34 34 35 35 35 35 35 35 35 34 34
19 20 21 22 23 24 26 28 30 31 32 33 33 33 33 32 32 31 31 31 31 31 31 31 30 30 29 29 29 29 28 27 26 25 24 24 23 23 22 21 20 19 20 21 21 21 21 22 24 26 28 29 30 31 32 33 33 34 35 35 35 36 36 36 36 36 35 35 35
17 18 18 19 20 21 23 25 27 29 30 32 32 33 33 33 32 32 32 32 31 31 31 30 30 29 29 29 29 28 27 27 26 25 24 24 23 23 22 21 20 21 22 22 22 22 22 24 26 27 28 29 30 31 32 33 34 35 35 35 36 36 36 36 36 35 35 35 35
15 16 16 16 17 18 20 22 24 26 28 30 31 32 33 33 33 33 32 32 31 31 30 30 29 29 29 29 28 28 27 26 25 25 24 24 23 22 22 21 22 23 23 22 22 22 24 26 27 28 28 29 30 31 33 34 35 36 36 37 37 37 37 37 36 36 36 35 35
14 15 15 15 15 16 18 19 21 23 25 27 29 31 32 33 33 33 32 32 31 30 30 29 29 29 29 29 28 27 27 26 25 25 24 24 23 22 22 22 23 24 23 22 22 23 25 27 28 28 28 29 30 32 33 35 36 37 37 38 38 38 38 38 38 37 37 36 35
13 14 14 14 14 15 16 17 18 20 22 24 26 29 30 31 32 32 32 32 31 30 30 29 29 29 29 28 28 27 26 25 25 24 24 24 23 23 23 23 24 23 22 22 23 26 27 28 28 28 29 30 31 33 34 35 36 37 38 39 39 39 39 39 39 38 38 37 36
12 12 13 13 13 14 15 16 16 18 19 22 24 26 28 29 31 32 32 32 31 30 29 29 28 28 28 28 27 26 26 25 25 24 24 24 23 23 24 24 24 23 23 24 26 28 29 29 29 29 30 31 32 34 35 36 37 38 39 39 39 39 39 39 39 38 38 37 36
11 11 11 12 12 13 14 14 15 16 18 20 22 24 25 27 29 31 31 31 30 29 29 28 28 28 27 27 26 26 25 25 24 24 24 24 24 24 25 25 25 24 25 26 28 29 29 29 29 30 31 32 33 35 36 37 38 39 39 39 39 39 39 39 38 38 37 36 34
11 11 10 11 11 12 13 13 14 15 16 18 20 22 23 25 27 29 30 30 30 29 28 28 27 27 27 26 26 25 25 24 24 24 24 24 24 25 25 25 25 26 27 28 30 30 30 30 30 31 32 33 35 36 37 38 39 39 40 40 39 39 39 38 38 37 37 36 34
11 10 10 10 10 11 11 12 13 14 15 17 18 20 21 23 25 27 28 29 29 28 28 27 27 26 26 25 25 24 24 24 24 24 24 24 24 25 25 26 26 27 28 30 30 31 31 31 32 33 33 35 36 37 37 38 39 39 39 39 39 39 38 38 37 36 36 36 35
10 10 10 9 9 10 11 11 12 13 14 15 16 18 19 21 23 26 27 27 27 27 27 26 26 25 25 24 24 24 24 24 24 24 24 25 25 25 26 27 28 29 30 31 31 32 32 33 34 34 35 35 36 37 37 38 38 38 38 38 38 38 37 36 35 35 34 34 33
10 9 9 9 8 9 10 10 11 11 12 13 14 16 18 20 22 24 25 26 26 26 25 25 24 24 24 24 24 24 24 24 24 25 25 25 26 26 27 28 29 30 31 32 32 33 34 35 35 35 35 36 36 36 36 37 37 37 37 37 37 37 36 34 33 32 32 31 31
8 8 8 8 8 8 8 9 9 10 10 11 13 15 17 19 22 23 24 24 24 24 24 23 23 23 24 24 24 24 25 25 25 25 26 26 27 28 29 30 31 32 33 34 34 35 36 36 36 36 36 35 35 35 35 35 35 36 36 36 36 35 34 33 31 30 30 30 30
7 7 7 7 7 7 7 8 8 8 9 10 12 15 17 19 21 22 22 23 22 22 22 22 23 23 24 24 24 24 25 25 26 26 27 28 29 29 31 32 33 34 35 36 37 37 38 38 37 36 35 34 34 33 33 34 34 35 35 35 34 33 33 32 31 29 29 29 28
Wind_Direction
218 219 222 225 226 226 225 225 225 225 225 224 223 224 225 226 228 229 230 230 230 229 228 227 226 226 227 228 229 231 233 234 237 240 243 247 250 254 257 261 265 269 272 276 280 283 286 288 291 294 297 300 302 305 307 309 311 313 313 313 313 314 314 313 313 312 312 311 310
219 221 224 226 227 226 225 224 224 224 225 224 224 225 226 227 229 231 232 233 233 232 231 230 228 228 228 229 230 232 233 234 237 240 243 247 250 253 257 261 265 269 272 276 279 282 284 287 290 293 297 299 302 304 306 308 310 312 313 313 313 314 314 313 312 312 311 310 309
220 222 225 226 226 225 224 224 224 224 224 224 225 226 227 229 231 233 235 235 235 235 233 232 230 229 229 230 231 232 233 234 237 240 243 246 250 253 257 261 265 268 272 276 279 281 283 286 289 292 296 298 301 303 306 308 311 312 313 313 313 313 313 313 312 311 310 309 308
221 223 225 226 226 225 225 224 224 224 224 225 225 226 228 230 232 234 235 237 237 236 235 233 232 231 230 231 231 232 232 234 237 240 243 246 249 253 257 260 264 268 272 275 277 280 282 284 288 292 295 298 301 303 306 308 310 312 313 313 313 313 313 312 311 310 310 309 308
222 224 226 227 227 226 225 225 225 225 226 226 226 227 228 230 232 234 235 236 237 237 236 234 233 232 231 232 231 231 232 234 237 240 243 246 249 253 257 260 264 267 271 274 276 278 280 284 287 291 294 297 300 303 306 308 310 312 313 313 313 313 312 312 311 310 309 309 308
222 225 227 228 227 227 226 226 226 226 227 227 227 227 228 230 232 233 235 236 237 237 236 235 233 232 232 231 231 231 232 234 237 240 243 246 249 253 256 260 263 267 270 272 274 277 279 282 286 290 293 296 299 302 305 307 309 311 313 313 313 313 313 312 311 310 309 308 307
224 226 227 228 228 227 227 226 226 227 227 228 227 228 229 231 233 234 236 237 237 237 236 235 233 232 231 230 230 230 232 235 237 240 243 246 249 252 256 260 263 266 269 271 273 276 278 281 285 288 292 295 298 301 304 307 309 311 312 313 313 313 313 312 311 310 309 308 307
225 227 228 229 229 228 228 227 227 227 228 228 228 229 230 232 234 235 236 237 238 237 236 235 233 232 231 230 230 231 232 235 238 240 243 246 249 252 255 259 262 265 268 270 272 275 277 281 284 287 291 294 297 300 303 307 309 312 313 313 313 313 313 312 312 310 309 307 306
226 227 229 230 230 230 229 228 228 228 229 229 229 230 232 233 235 236 237 238 238 237 236 234 233 231 230 229 229 231 233 235 238 240 243 245 248 252 255 258 261 264 266 269 272 274 277 280 283 287 290 293 297 300 303 307 310 312 313 314 313 313 312 312 311 310 309 307 306
227 228 229 230 231 231 230 229 229 230 230 230 231 231 233 235 236 237 238 238 238 237 235 234 232 230 229 228 229 231 233 236 238 240 243 245 248 252 255 258 260 263 265 268 270 273 276 279 283 286 289 292 296 300 304 307 311 313 314 315 314 313 312 311 310 309 308 307 306
230 231 231 232 233 232 232 231 230 231 231 232 232 233 234 235 237 238 238 238 237 236 235 233 231 229 228 228 230 232 234 236 238 240 242 245 248 251 255 257 259 262 264 267 270 273 275 279 282 285 289 292 295 300 304 308 311 313 315 315 315 314 312 311 309 308 307 306 304
233 234 234 235 235 234 233 232 232 232 232 233 233 234 235 236 237 238 238 238 237 236 234 232 230 229 228 229 230 232 234 236 237 240 242 245 248 251 254 256 259 261 263 266 269 272 275 278 282 285 288 292 296 300 305 308 311 313 314 315 315 314 313 311 309 307 305 304 303
236 236 237 237 236 236 235 234 234 234 234 234 234 235 236 237 237 238 238 237 236 235 233 231 229 229 229 230 231 233 234 236 237 239 242 245 248 251 253 256 258 260 263 266 269 272 275 278 281 285 288 293 297 302 306 309 312 313 314 315 315 314 312 311 308 306 304 303 302
239 238 238 237 237 236 235 235 235 235 235 235 236 236 237 237 238 238 237 236 235 234 232 230 229 228 229 230 231 233 234 236 237 240 242 245 248 250 253 255 257 260 263 266 269 272 275 278 281 285 289 294 299 303 306 309 311 313 314 314 314 313 312 310 308 306 304 302 301
239 239 239 238 237 237 236 235 235 235 236 236 237 237 237 238 238 237 236 235 234 232 231 229 228 228 229 230 231 233 234 236 238 240 242 245 248 250 253 255 257 260 263 266 269 272 275 278 281 285 289 294 299 304 307 309 311 313 314 314 313 312 311 309 307 305 303 302 301
240 240 240 239 238 237 237 236 236 236 236 236 237 237 237 237 237 237 236 234 233 231 230 228 228 228 229 230 231 232 234 236 238 240 243 245 248 251 253 255 257 259 263 266 269 272 275 278 281 285 290 295 300 304 306 308 310 311 312 312 312 311 310 308 306 304 303 301 300
240 241 241 240 239 238 237 236 236 235 235 235 236 236 237 238 238 238 237 235 233 231 229 228 228 229 230 231 232 233 234 236 238 241 243 246 248 251 253 255 257 260 263 266 269 272 275 278 282 286 291 296 300 304 306 308 309 310 311 311 310 310 309 307 305 304 302 301 300
241 242 242 241 240 238 237 236 235 235 235 236 236 238 239 240 240 240 238 236 234 232 230 229 229 230 231 232 233 234 236 237 239 242 244 246 249 251 253 255 257 260 263 266 270 272 275 279 283 288 292 297 300 303 305 307 308 309 309 309 308 308 307 306 305 303 301 300 299
242 243 243 242 241 240 238 237 237 237 237 238 239 240 242 242 242 241 240 238 235 233 231 231 231 232 233 234 235 236 237 239 241 243 245 247 249 251 253 255 257 260 263 267 270 273 276 280 284 289 294 297 300 302 304 306 307 308 308 307 307 306 306 305 304 302 301 300 299
245 246 246 246 245 244 242 241 240 240 240 241 242 243 243 244 243 242 240 238 236 234 233 232 233 233 234 235 236 237 238 239 241 242 244 246 249 251 252 255 257 260 264 267 270 273 277 282 287 291 295 297 300 302 305 306 307 307 306 306 305 305 304 303 303 302 301 300 299
249 250 251 251 250 249 247 245 244 243 243 243 243 244 244 244 244 242 241 239 237 235 234 234 234 235 235 236 237 237 238 240 241 242 244 246 248 250 253 255 258 261 264 267 271 274 279 284 289 293 295 298 301 304 306 307 307 306 305 304 304 303 303 303 302 301 301 300 299
253 254 254 254 253 251 249 247 245 244 244 244 245 245 245 244 244 242 240 239 237 236 235 235 235 236 236 237 237 238 239 239 240 242 244 246 248 250 253 256 258 262 265 268 272 276 281 287 291 293 295 299 303 305 307 307 306 305 304 303 303 303 302 302 302 302 301 301 300
254 254 254 254 253 251 249 247 246 245 245 245 245 245 245 244 243 241 239 238 236 235 235 235 235 236 236 237 237 238 238 239 240 242 243 246 248 250 253 256 259 262 265 269 273 278 284 289 291 293 296 301 305 307 307 306 305 303 303 302 302 302 302 302 302 302 301 301 301
254 255 255 254 253 251 249 247 246 246 246 246 246 246 245 244 242 240 238 236 235 235 235 235 235 235 235 235 236 236 237 238 240 241 243 245 247 250 253 256 260 263 266 270 276 282 287 289 290 293 298 303 306 306 305 304 302 301 301 300 300 300 300 301 301 301 301 301 300
256 256 256 255 253 251 249 248 246 246 246 247 247 246 245 243 241 238 236 235 234 234 234 234 234 235 234 234 234 235 236 237 239 241 243 245 248 251 254 257 260 263 267 272 279 285 288 288 291 296 302 305 305 305 303 301 300 299 299 299 299 300 300 300 300 300 301 301 300
257 257 256 255 254 252 250 248 247 247 247 247 247 246 244 242 240 237 235 234 234 233 233 234 234 234 234 234 234 235 236 237 239 242 244 246 249 252 255 259 261 264 269 275 282 286 287 289 294 299 304 305 305 303 301 300 299 299 299 299 299 300 300 300 301 301 302 302 302
258 257 257 255 254 252 251 249 248 248 247 247 247 246 244 242 239 237 235 234 233 233 233 234 234 234 234 234 234 235 236 238 240 242 244 247 250 254 257 260 263 266 272 278 283 285 287 291 297 302 304 305 304 302 301 300 300 301 301 301 301 301 301 301 302 303 303 303 303
258 258 257 256 255 254 252 251 249 248 248 247 246 245 243 241 239 237 235 234 233 233 233 234 234 234 234 234 235 236 237 239 241 243 245 249 252 255 259 262 264 269 275 281 282 284 287 293 300 303 304 304 302 301 300 301 301 302 303 302 302 302 302 303 303 303 303 303 303
260 259 259 258 258 256 254 252 251 250 248 247 246 244 242 240 238 236 235 234 233 233 234 234 235 235 234 234 235 236 238 239 241 244 247 250 253 257 260 263 267 273 279 281 281 283 288 295 300 303 303 302 300 300 300 301 302 303 302 302 302 302 302 302 302 302 302 302 302
261 261 262 261 260 258 256 255 253 251 250 248 246 244 242 239 237 236 235 234 234 234 235 235 236 235 235 235 236 237 238 240 243 245 248 252 255 259 262 265 271 277 279 279 280 285 292 298 301 302 302 300 299 299 300 301 302 302 301 300 300 299 299 299 299 299 298 298 298
261 262 263 262 262 260 258 256 254 252 250 248 246 244 241 239 237 236 235 235 235 235 236 236 236 236 237 237 237 238 239 241 244 247 250 254 257 260 264 269 274 277 277 278 282 289 296 300 302 301 300 298 298 299 300 301 301 300 299 298 297 297 297 296 296 296 295 295 294
260 261 262 263 263 261 259 256 255 253 251 249 246 244 242 239 237 236 235 235 235 235 236 236 236 236 237 237 237 238 240 243 246 249 253 256 259 263 266 270 273 274 275 279 287 295 299 301 301 299 298 297 298 299 300 300 300 299 298 297 296 296 296 296 295 295 294 294 293
258 260 262 263 263 262 259 257 255 253 251 248 247 245 242 240 238 236 234 234 234 235 235 236 237 236 236 236 237 239 241 245 248 252 255 259 262 265 268 270 271 273 278 285 294 299 301 300 299 297 296 297 299 299 299 299 298 297 296 296 296 295 295 295 294 294 294 293 292
256 259 261 262 262 261 259 257 255 252 250 248 246 245 243 240 238 235 233 233 233 234 236 237 237 237 237 237 238 241 244 247 251 255 258 261 265 268 270 272 274 278 285 293 298 300 300 298 296 295 296 298 299 299 299 298 297 296 295 294 294 294 293 293 292 292 292 291 289
252 254 257 259 260 259 258 256 254 251 249 247 246 244 243 240 237 235 233 232 233 234 235 237 237 237 237 238 240 243 246 250 254 257 261 264 267 270 272 275 279 285 291 296 299 299 297 295 294 295 297 299 299 298 298 297 296 295 295 294 293 293 292 291 291 290 289 287 284
247 248 251 254 256 256 256 254 252 250 248 247 245 244 242 240 237 234 233 232 232 234 235 236 236 236 236 238 241 245 249 253 257 260 264 267 270 273 276 280 285 290 294 297 297 296 295 294 295 297 298 299 299 298 298 297 296 295 295 294 293 293 292 291 290 289 288 286 283
244 244 245 249 252 253 253 252 251 250 249 247 245 243 242 239 235 233 232 231 232 234 235 236 236 236 237 240 244 248 252 256 259 263 267 270 274 277 281 285 289 292 294 295 295 294 294 295 297 298 299 299 299 298 297 297 296 295 294 294 293 293 292 291 290 289 288 286 285
242 241 241 243 247 249 249 250 250 251 249 246 244 242 240 237 234 232 231 231 232 233 235 236 236 237 240 243 247 252 255 259 263 267 271 275 278 281 285 287 290 292 293 293 293 293 295 297 298 299 300 299 299 298 297 296 295 294 293 293 292 292 291 290 289 287 286 285 285
241 239 238 237 240 243 246 248 250 250 248 244 241 239 237 235 233 231 231 231 232 233 234 235 237 239 243 247 251 255 259 263 268 272 275 278 281 284 286 288 289 290 291 291 292 294 296 297 298 299 300 299 299 298 297 296 295 293 292 292 291 290 289 288 286 285 284 283 283
238 235 232 231 232 236 241 245 248 246 243 239 237 235 234 233 232 231 231 231 232 233 235 236 239 243 247 251 255 260 264 269 272 276 279 282 284 286 287 288 289 290 291 292 294 295 297 298 299 299 300 300 299 299 298 296 294 293 292 291 290 290 289 287 285 283 283 282 281
236 230 224 221 222 226 232 238 241 240 236 232 231 231 232 232 232 231 231 231 232 233 235 239 243 247 252 256 261 266 270 274 277 280 283 285 287 288 289 290 291 292 293 294 296 297 298 299 300 301 301 301 301 300 298 296 294 293 292 292 291 290 289 289 287 285 282 282 281
Height
1491 1492 1492 1492 1494 1495 1497 1498 1499 1500 1501 1502 1503 1504 1504 1505 1506 1507 1508 1509 1511 1512 1513 1514 1516 1517 1518 1519 1520 1521 1522 1523 1524 1524 1525 1526 1526 1527 1527 1527 1527 1527 1527 1527 1527 1527 1527 1527 1527 1527 1526 1526 1526 1525 1525 1524 1524 1523 1523 1522 1522 1521 1520 1520 1519 1518 1517 1517 1516
1489 1490 1490 1491 1492 1494 1496 1497 1497 1498 1499 1500 1502 1502 1503 1504 1505 1507 1507 1508 1510 1511 1512 1513 1514 1515 1517 1518 1519 1520 1521 1522 1522 1523 1523 1524 1525 1525 1526 1526 1526 1526 1526 1526 1526 1526 1526 1526 1525 1525 1525 1525 1524 1524 1523 1523 1523 1522 1522 1521 1520 1519 1519 1518 1517 1517 1516 1516 1515
1487 1488 1489 1490 1491 1492 1494 1495 1496 1497 1497 1499 1500 1501 1502 1503 1505 1506 1506 1507 1508 1509 1510 1511 1512 1514 1515 1516 1517 1518 1519 1520 1521 1521 1522 1522 1523 1524 1524 1524 1525 1525 1525 1525 1524 1524 1524 1524 1524 1524 1523 1523 1523 1522 1522 1522 1521 1521 1520 1520 1519 1518 1517 1517 1516 1516 1515 1514 1514
1486 1486 1487 1488 1490 1491 1492 1493 1494 1495 1496 1497 1499 1500 1502 1502 1503 1504 1505 1506 1507 1508 1509 1510 1511 1512 1514 1515 1516 1517 1518 1518 1519 1520 1521 1521 1522 1522 1522 1523 1523 1523 1523 1523 1523 1523 1523 1523 1522 1522 1522 1522 1522 1521 1521 1520 1520 1519 1519 1518 1517 1517 1516 1515 1515 1514 1513 1513 1512
1484 1485 1486 1487 1488 1490 1491 1492 1493 1494 1495 1496 1498 1499 1500 1501 1502 1502 1503 1504 1505 1506 1507 1508 1510 1511 1512 1513 1515 1515 1516 1517 1517 1518 1519 1520 1520 1521 1521 1521 1522 1522 1522 1522 1522 1522 1522 1521 1521 1521 1521 1521 1520 1520 1519 1519 1518 1518 1517 1517 1516 1516 1515 1514 1513 1513 1512 1512 1511
1482 1483 1484 1485 1487 1488 1489 1491 1492 1493 1494 1495 1497 1498 1499 1499 1500 1501 1501 1502 1503 1504 1506 1507 1508 1509 1511 1512 1513 1514 1514 1515 1516 1517 1517 1518 1518 1519 1519 1520 1520 1520 1520 1520 1520 1520 1520 1520 1520 1520 1519 1519 1519 1518 1518 1517 1517 1517 1516 1515 1514 1514 1513 1513 1512 1512 1511 1510 1509
1481 1482 1483 1484 1485 1487 1488 1489 1491 1492 1493 1494 1495 1496 1497 1497 1498 1499 1500 1501 1502 1503 1504 1505 1506 1507 1509 1510 1511 1512 1512 1513 1514 1515 1516 1516 1517 1517 1518 1518 1518 1518 1518 1519 1519 1519 1518 1518 1518 1518 1518 1518 1517 1517 1517 1516 1516 1515 1514 1514 1513 1512 1512 1511 1511 1510 1509 1509 1508
1480 1481 1482 1483 1484 1486 1487 1488 1489 1490 1491 1492 1493 1494 1495 1496 1497 1497 1498 1500 1501 1501 1502 1503 1505 1506 1507 1508 1509 1510 1511 1512 1512 1513 1514 1515 1515 1516 1516 1517 1517 1517 1517 1517 1517 1517 1517 1517 1517 1517 1516 1516 1516 1516 1515 1515 1514 1514 1513 1512 1512 1511 1510 1509 1509 1508 1508 1507 1507
1479 1480 1481 1482 1483 1484 1486 1487 1488 1489 1490 1491 1492 1493 1494 1494 1495 1496 1497 1498 1499 1500 1501 1502 1503 1504 1505 1507 1507 1508 1509 1510 1511 1512 1512 1513 1513 1514 1514 1515 1515 1515 1515 1516 1516 1516 1516 1515 1515 1515 1515 1515 1514 1514 1514 1513 1513 1512 1512 1511 1510 1509 1509 1508 1507 1507 1506 1506 1505
1477 1479 1480 1481 1482 1483 1485 1486 1487 1488 1488 1489 1491 1492 1492 1492 1493 1494 1495 1496 1497 1498 1499 1500 1501 1502 1503 1505 1506 1507 1507 1508 1509 1510 1510 1511 1512 1512 1512 1513 1513 1513 1514 1514 1514 1514 1514 1514 1514 1513 1513 1513 1513 1513 1512 1512 1511 1511 1510 1510 1509 1508 1507 1506 1506 1505 1504 1504 1503
1477 1478 1479 1480 1481 1482 1484 1485 1486 1486 1487 1488 1489 1490 1490 1491 1492 1492 1493 1494 1495 1496 1497 1498 1499 1501 1502 1503 1504 1505 1506 1507 1507 1508 1509 1509 1510 1510 1511 1511 1512 1512 1512 1512 1512 1512 1512 1512 1512 1512 1512 1512 1511 1511 1511 1510 1510 1509 1509 1508 1507 1507 1506 1505 1504 1503 1502 1502 1502
1476 1477 1478 1479 1480 1481 1482 1483 1484 1485 1485 1486 1487 1488 1488 1489 1490 1491 1492 1492 1493 1494 1496 1497 1498 1499 1500 1501 1502 1503 1504 1505 1506 1506 1507 1507 1508 1509 1509 1510 1510 1510 1510 1511 1511 1511 1511 1511 1510 1510 1510 1510 1510 1509 1509 1508 1508 1507 1507 1506 1506 1505 1504 1503 1503 1502 1501 1500 1500
1475 1476 1477 1478 1479 1480 1481 1482 1482 1483 1483 1484 1485 1486 1486 1487 1488 1489 1490 1490 1492 1493 1494 1495 1496 1497 1498 1499 1500 1501 1502 1503 1504 1504 1505 1506 1506 1507 1507 1508 1508 1508 1509 1509 1509 1509 1509 1509 1509 1509 1508 1508 1508 1507 1507 1507 1506 1506 1505 1505 1504 1503 1502 1502 1501 1500 1500 1499 1498
1473 1474 1475 1476 1477 1478 1479 1479 1480 1481 1482 1482 1483 1484 1484 1485 1486 1487 1487 1488 1490 1491 1492 1493 1494 1496 1497 1497 1498 1499 1500 1501 1502 1502 1503 1504 1505 1505 1506 1506 1507 1507 1507 1507 1507 1507 1507 1507 1507 1507 1507 1507 1506 1506 1505 1505 1504 1504 1503 1503 1502 1502 1501 1500 1499 1499 1498 1497 1497
1472 1472 1473 1474 1475 1476 1477 1477 1478 1479 1479 1480 1481 1482 1482 1483 1484 1484 1485 1487 1488 1489 1490 1492 1492 1494 1495 1496 1497 1498 1499 1499 1500 1501 1502 1502 1503 1503 1504 1504 1505 1505 1505 1505 1506 1506 1506 1506 1505 1505 1505 1505 1504 1504 1503 1503 1502 1502 1502 1501 1501 1500 1499 1498 1498 1497 1496 1495 1495
1470 1470 1471 1472 1473 1474 1475 1475 1476 1477 1477 1478 1479 1479 1480 1481 1481 1482 1484 1485 1486 1487 1488 1490 1491 1492 1493 1494 1495 1496 1497 1498 1498 1499 1500 1500 1501 1502 1502 1503 1503 1503 1503 1504 1504 1504 1504 1504 1504 1503 1503 1503 1502 1502 1502 1501 1501 1500 1500 1499 1499 1498 1497 1497 1496 1495 1494 1493 1492
1468 1468 1469 1470 1471 1472 1472 1473 1474 1475 1475 1476 1476 1477 1478 1479 1480 1481 1482 1484 1485 1486 1487 1488 1490 1491 1492 1493 1493 1494 1495 1496 1497 1497 1498 1499 1499 1500 1501 1501 1501 1502 1502 1502 1502 1502 1502 1502 1502 1502 1502 1501 1501 1501 1500 1500 1499 1498 1498 1497 1497 1496 1496 1495 1494 1493 1492 1492 1491
1466 1467 1467 1468 1469 1470 1471 1472 1472 1472 1473 1474 1475 1476 1477 1478 1479 1481 1482 1483 1484 1485 1487 1487 1488 1489 1490 1491 1492 1493 1493 1494 1495 1496 1497 1497 1498 1498 1499 1499 1500 1500 1500 1500 1500 1500 1500 1500 1500 1500 1500 1499 1499 1499 1498 1498 1497 1497 1496 1495 1495 1494 1494 1493 1492 1491 1490 1489 1488
1464 1465 1466 1466 1467 1468 1469 1470 1471 1472 1472 1473 1474 1475 1476 1477 1478 1480 1481 1482 1483 1484 1486 1487 1487 1488 1489 1490 1491 1491 1492 1493 1493 1494 1495 1496 1496 1497 1497 1497 1498 1498 1498 1498 1499 1499 1498 1498 1498 1498 1498 1497 1497 1497 1497 1496 1495 1495 1494 1493 1493 1492 1492 1491 1490 1489 1488 1487 1487
1463 1463 1464 1465 1466 1467 1468 1469 1470 1471 1472 1472 1473 1474 1475 1476 1477 1478 1479 1481 1482 1483 1484 1485 1486 1487 1487 1488 1489 1490 1491 1491 1492 1493 1493 1494 1494 1495 1495 1496 1496 1497 1497 1497 1497 1497 1497 1497 1496 1496 1496 1496 1496 1495 1495 1494 1493 1493 1492 1492 1491 1490 1490 1489 1488 1487 1486 1485 1484
1462 1462 1463 1464 1466 1467 1468 1469 1470 1470 1471 1471 1472 1473 1474 1475 1476 1477 1478 1480 1481 1482 1483 1484 1484 1485 1486 1487 1488 1488 1489 1490 1491 1491 1492 1492 1492 1493 1494 1494 1494 1495 1495 1495 1495 1495 1495 1495 1494 1494 1494 1494 1493 1493 1492 1492 1491 1491 1490 1489 1489 1488 1487 1487 1486 1485 1484 1483 1482
1461 1462 1462 1463 1464 1466 1467 1467 1468 1469 1469 1470 1470 1471 1472 1473 1475 1476 1477 1478 1479 1480 1481 1482 1483 1484 1485 1485 1486 1487 1487 1488 1489 1489 1490 1491 1491 1492 1492 1492 1493 1493 1493 1493 1493 1493 1493 1493 1493 1493 1492 1492 1492 1491 1490 1490 1489 1488 1488 1487 1487 1486 1485 1484 1483 1482 1482 1481 1480
1460 1460 1461 1462 1463 1464 1465 1466 1466 1467 1467 1468 1469 1470 1471 1472 1473 1475 1476 1477 1478 1478 1479 1480 1481 1482 1483 1484 1485 1486 1486 1487 1487 1488 1488 1489 1489 1490 1490 1491 1491 1491 1492 1492 1492 1491 1491 1491 1491 1491 1491 1490 1489 1489 1488 1488 1487 1486 1486 1485 1484 1483 1482 1482 1481 1480 1479 1478 1477
1458 1459 1460 1460 1461 1462 1463 1464 1465 1465 1466 1466 1467 1468 1469 1471 1472 1473 1474 1475 1476 1477 1478 1479 1479 1481 1482 1482 1483 1484 1485 1485 1486 1486 1487 1487 1488 1488 1488 1489 1489 1490 1490 1490 1490 1490 1489 1490 1490 1489 1489 1488 1487 1487 1486 1486 1485 1484 1483 1482 1482 1481 1480 1480 1479 1478 1477 1476 1475
1457 1457 1458 1459 1460 1461 1462 1462 1462 1463 1464 1465 1466 1467 1468 1469 1470 1472 1472 1473 1474 1475 1476 1477 1478 1479 1480 1481 1482 1482 1483 1483 1484 1485 1485 1486 1486 1487 1487 1487 1488 1488 1488 1488 1488 1488 1488 1488 1488 1487 1487 1486 1485 1485 1484 1483 1483 1482 1481 1480 1479 1479 1478 1477 1476 1476 1475 1473 1472
1456 1456 1457 1457 1458 1459 1460 1460 1461 1462 1462 1463 1464 1465 1467 1468 1469 1470 1471 1472 1472 1473 1474 1475 1476 1477 1478 1479 1480 1481 1481 1482 1482 1483 1483 1484 1484 1485 1485 1486 1486 1487 1487 1487 1487 1487 1487 1487 1486 1486 1485 1484 1483 1482 1481 1481 1480 1479 1478 1477 1477 1476 1475 1474 1474 1473 1472 1471 1470
1454 1454 1455 1456 1456 1457 1458 1458 1459 1460 1461 1462 1462 1464 1465 1466 1467 1468 1469 1470 1471 1472 1473 1474 1475 1476 1477 1478 1478 1479 1480 1480 1481 1482 1482 1482 1483 1483 1483 1484 1484 1485 1485 1485 1485 1485 1485 1485 1484 1483 1482 1482 1481 1479 1478 1477 1477 1476 1475 1474 1473 1473 1472 1471 1471 1470 1469 1468 1467
1452 1452 1453 1454 1454 1455 1456 1457 1457 1458 1459 1460 1461 1462 1463 1464 1466 1467 1467 1468 1469 1470 1471 1472 1473 1474 1475 1476 1477 1478 1478 1479 1480 1480 1481 1481 1481 1482 1482 1482 1483 1483 1483 1484 1484 1484 1484 1483 1482 1482 1481 1480 1478 1477 1476 1475 1474 1473 1472 1471 1470 1469 1468 1467 1467 1466 1466 1465 1464
1451 1451 1452 1452 1453 1454 1454 1455 1456 1457 1457 1458 1459 1461 1462 1463 1464 1465 1466 1467 1468 1469 1470 1471 1472 1473 1474 1475 1476 1476 1477 1478 1478 1479 1479 1479 1480 1480 1480 1481 1481 1481 1482 1482 1482 1482 1482 1481 1481 1480 1479 1478 1476 1475 1473 1472 1471 1470 1469 1468 1467 1466 1465 1464 1463 1463 1462 1462 1461
1449 1450 1450 1451 1451 1452 1453 1453 1454 1455 1456 1457 1458 1459 1460 1461 1462 1463 1464 1465 1466 1467 1468 1469 1471 1472 1473 1473 1474 1475 1476 1476 1477 1477 1477 1478 1478 1478 1478 1479 1479 1480 1480 1481 1481 1481 1480 1479 1478 1478 1477 1476 1475 1473 1471 1470 1469 1468 1467 1466 1465 1464 1463 1462 1461 1460 1460 1459 1458
1448 1448 1449 1449 1450 1451 1451 1452 1452 1453 1454 1455 1456 1457 1458 1459 1460 1462 1463 1464 1465 1466 1467 1468 1470 1471 1472 1472 1473 1474 1474 1475 1475 1476 1476 1476 1477 1477 1477 1477 1477 1478 1479 1479 1479 1478 1477 1477 1476 1476 1475 1474 1472 1471 1469 1468 1467 1465 1464 1463 1462 1461 1461 1460 1459 1458 1457 1457 1456
1447 1447 1448 1448 1449 1449 1450 1450 1451 1452 1452 1453 1454 1455 1456 1457 1459 1460 1462 1463 1464 1465 1466 1467 1468 1469 1470 1471 1472 1472 1473 1473 1474 1474 1474 1475 1475 1475 1475 1475 1476 1476 1477 1477 1477 1476 1475 1475 1474 1474 1473 1472 1471 1469 1467 1466 1464 1462 1461 1460 1459 1458 1457 1457 1456 1455 1455 1454 1454
1446 1447 1447 1447 1448 1448 1449 1449 1450 1450 1451 1452 1452 1453 1455 1456 1458 1459 1460 1462 1462 1464 1465 1466 1467 1468 1469 1470 1471 1471 1472 1472 1472 1473 1473 1473 1473 1473 1473 1473 1474 1474 1475 1475 1474 1473 1473 1472 1472 1472 1471 1470 1468 1467 1465 1463 1462 1460 1458 1457 1456 1455 1454 1453 1453 1452 1451 1451 1451
1446 1446 1446 1446 1447 1447 1447 1448 1448 1449 1450 1451 1451 1452 1453 1455 1456 1457 1459 1460 1462 1463 1464 1465 1466 1467 1468 1468 1469 1470 1470 1471 1471 1471 1471 1471 1472 1472 1472 1472 1472 1472 1472 1472 1472 1471 1471 1470 1470 1469 1468 1467 1466 1464 1462 1461 1459 1458 1456 1455 1453 1452 1452 1451 1450 1449 1448 1448 1447
1445 1445 1445 1446 1446 1446 1447 1447 1447 1448 1449 1450 1450 1451 1452 1453 1455 1456 1458 1459 1461 1462 1463 1464 1465 1466 1467 1467 1468 1468 1469 1469 1469 1470 1470 1470 1470 1470 1470 1470 1470 1470 1470 1469 1469 1469 1469 1468 1468 1467 1466 1465 1463 1462 1460 1458 1457 1455 1454 1452 1451 1450 1449 1448 1447 1446 1446 1445 1445
1444 1444 1444 1445 1445 1445 1446 1446 1447 1447 1448 1449 1449 1450 1451 1452 1454 1455 1457 1458 1460 1461 1462 1463 1464 1465 1466 1466 1467 1467 1467 1468 1468 1468 1468 1468 1468 1468 1467 1467 1467 1467 1467 1467 1467 1467 1466 1466 1466 1465 1464 1462 1461 1459 1457 1456 1454 1452 1451 1449 1448 1447 1446 1446 1444 1443 1443 1442 1442
1443 1443 1444 1444 1444 1445 1445 1446 1446 1447 1447 1448 1449 1450 1451 1452 1453 1455 1456 1457 1459 1460 1461 1462 1463 1464 1465 1465 1466 1466 1466 1466 1466 1466 1466 1466 1466 1466 1465 1465 1465 1465 1465 1465 1464 1464 1464 1463 1463 1462 1461 1460 1458 1456 1455 1453 1451 1449 1448 1447 1445 1444 1443 1442 1442 1441 1440 1439 1438
1442 1443 1443 1443 1444 1444 1445 1445 1446 1446 1447 1448 1448 1449 1450 1452 1452 1454 1455 1457 1458 1459 1460 1461 1462 1463 1464 1464 1464 1464 1465 1465 1465 1465 1465 1465 1464 1464 1463 1463 1462 1462 1462 1462 1462 1462 1461 1461 1460 1459 1458 1457 1455 1454 1452 1450 1448 1447 1445 1444 1442 1441 1440 1440 1439 1438 1437 1436 1435
1442 1442 1442 1443 1443 1444 1444 1445 1445 1446 1447 1447 1448 1449 1450 1451 1452 1453 1455 1456 1457 1459 1460 1461 1462 1462 1462 1463 1463 1463 1463 1463 1463 1463 1463 1463 1462 1462 1462 1461 1460 1460 1460 1460 1460 1459 1459 1458 1457 1457 1456 1455 1453 1451 1449 1447 1446 1444 1442 1441 1440 1439 1438 1437 1437 1435 1434 1433 1433
1442 1442 1442 1442 1443 1443 1444 1444 1445 1446 1447 1447 1448 1449 1450 1451 1452 1453 1454 1456 1457 1458 1459 1460 1461 1461 1461 1461 1461 1462 1462 1462 1462 1462 1461 1461 1460 1460 1459 1459 1458 1457 1457 1457 1457 1457 1456 1455 1455 1454 1453 1452 1450 1448 1447 1445 1443 1441 1440 1438 1437 1436 1435 1434 1434 1433 1432 1431 1431
1441 1442 1442 1442 1443 1443 1444 1444 1445 1446 1446 1447 1448 1449 1450 1451 1452 1453 1454 1456 1457 1458 1458 1459 1459 1459 1460 1460 1460 1460 1460 1460 1460 1459 1459 1459 1458 1457 1457 1456 1456 1455 1455 1454 1454 1453 1453 1452 1452 1451 1450 1449 1447 1446 1444 1442 1440 1438 1437 1436 1435 1434 1433 1432 1431 1430 1430 1429 1428